Winston-Salem, NC

8:46 PM EST on February 23, 2017 (GMT -0500)
Smith Reynolds

Weather History for KINT - March, 2014

Change the Weather History Date:

Monday, March 3, 2014

  Actual Average Record
Temperature  
Mean Temperature 41 °F -  
Max Temperature 61 °F 54 °F 81 °F (1976)
Min Temperature 21 °F 35 °F 4 °F (1980)
Degree Days  
Heating Degree Days 24    
Moisture  
Dew Point 30 °F    
Average Humidity 83    
Maximum Humidity 93    
Minimum Humidity 54    
Precipitation  
Precipitation 0.31 in - - ()
Sea Level Pressure  
Sea Level Pressure 30.02 in    
Wind  
Wind Speed 11 mph (NE)    
Max Wind Speed 23 mph    
Max Gust Speed 37 mph    
Visibility 5 miles    
Events Fog , Rain , Snow , Thunderstorm    
Averages and records for this station are not official NWS values.
T = Trace of Precipitation, MM = Missing Value Source: NWS Daily Summary

Daily Weather History Graph

Daily Weather History Graph

Search for Another Location

Airport or City:

Trip Planner

Search our weather history database for the weather conditions in past years. The results will help you decide how hot, cold, wet, or windy it might be!

Date:

Astronomy

Mar. 03, 2014 Rise Set
Actual Time 6:48 AM EST 6:17 PM EST
Civil Twilight 6:22 AM EST 6:43 PM EST
Nautical Twilight 5:53 AM EST 7:13 PM EST
Astronomical Twilight 5:23 AM EST 7:42 PM EST
Moon 8:01 AM EST (3/3) 9:12 PM EST (3/3)
Length of Visible Light 12h 20m
Length of Day
11h 29m
Waxing Crescent, 8% of the Moon is Illuminated
Mar 3
Waxing Crescent
Mar 8
First Quarter
Mar 16
Full
Mar 23
Last Quarter
Mar 30
New

Hourly Weather History & Observations

Time (EST) Temp. Windchill Dew Point Humidity Pressure Visibility Wind Dir Wind Speed Gust Speed Precip Events Conditions
12:54 AM 61.0 °F - 44.1 °F 54% 29.85 in 10.0 mi SW 8.1 mph - N/A   Clear
1:54 AM 61.0 °F - 44.1 °F 54% 29.83 in 10.0 mi SW 5.8 mph - N/A   Clear
2:54 AM 59.0 °F - 44.1 °F 58% 29.81 in 10.0 mi SW 4.6 mph - N/A   Clear
3:54 AM 59.0 °F - 44.1 °F 58% 29.79 in 10.0 mi SSW 5.8 mph - N/A   Scattered Clouds
4:54 AM 59.0 °F - 43.0 °F 55% 29.79 in 10.0 mi SW 4.6 mph - N/A   Mostly Cloudy
5:54 AM 59.0 °F - 43.0 °F 55% 29.80 in 10.0 mi SSW 4.6 mph - N/A   Overcast
6:54 AM 57.0 °F - 44.1 °F 62% 29.82 in 10.0 mi NNE 8.1 mph - N/A   Overcast
7:21 AM 46.9 °F - 43.0 °F 86% 29.85 in 5.0 mi NE 17.3 mph 28.8 mph 0.00 in Rain Light Rain
7:26 AM 46.0 °F 39.6 °F 42.1 °F 86% 29.86 in 2.5 mi NE 15.0 mph 24.2 mph 0.01 in Rain Rain
7:47 AM 43.0 °F 35.7 °F 39.9 °F 89% 29.91 in 2.5 mi NNE 15.0 mph - 0.05 in Rain , Thunderstorm Light Rain
7:54 AM 42.1 °F 34.5 °F 39.0 °F 89% 29.88 in 3.0 mi NE 15.0 mph 23.0 mph 0.07 in Rain , Thunderstorm Rain
7:56 AM 42.1 °F 35.7 °F 39.0 °F 89% 29.89 in 2.5 mi NE 11.5 mph 23.0 mph 0.02 in Rain Heavy Rain
8:06 AM 41.0 °F 34.3 °F 39.0 °F 93% 29.89 in 1.8 mi NE 11.5 mph 21.9 mph 0.05 in Rain Rain
8:14 AM 41.0 °F 34.3 °F 39.0 °F 93% 29.90 in 2.5 mi NE 11.5 mph 19.6 mph 0.07 in Rain Rain
8:22 AM 41.0 °F 33.5 °F 37.9 °F 89% 29.90 in 4.0 mi NE 13.8 mph 21.9 mph 0.08 in Rain Light Rain
8:54 AM 39.0 °F 29.9 °F 36.0 °F 89% 29.91 in 5.0 mi NE 17.3 mph 26.5 mph 0.11 in Rain Light Rain
9:54 AM 37.9 °F 28.9 °F 35.1 °F 89% 29.95 in 10.0 mi NE 16.1 mph 24.2 mph 0.05 in Rain Light Rain
10:54 AM 35.1 °F 24.8 °F 32.0 °F 89% 29.97 in 10.0 mi NE 17.3 mph 29.9 mph 0.00 in   Overcast
11:17 AM 35.1 °F 25.5 °F 32.0 °F 89% 29.97 in 10.0 mi ENE 15.0 mph 25.3 mph 0.00 in   Overcast
11:54 AM 34.0 °F 23.4 °F 30.9 °F 89% 29.99 in 9.0 mi NNE 17.3 mph 25.3 mph 0.00 in   Overcast
12:01 PM 33.1 °F 22.2 °F 30.0 °F 89% 29.99 in 5.0 mi NE 17.3 mph 26.5 mph 0.00 in Snow Light Snow
12:27 PM 32.0 °F 22.1 °F 28.0 °F 85% 30.01 in 2.5 mi NE 13.8 mph 27.6 mph 0.01 in Rain Light Freezing Rain
12:52 PM 30.2 °F 18.1 °F 26.6 °F 86% 30.00 in 2.5 mi NE 18.4 mph 31.1 mph 0.01 in Rain Light Freezing Rain
12:54 PM 30.9 °F 19.1 °F 27.0 °F 85% 30.01 in 2.5 mi NE 18.4 mph 29.9 mph 0.01 in Rain Light Freezing Rain
1:03 PM 30.9 °F 21.2 °F 27.0 °F 85% 30.01 in 3.0 mi NE 12.7 mph 29.9 mph 0.00 in Rain Light Freezing Rain
1:09 PM 30.0 °F 17.2 °F 27.0 °F 88% 30.03 in 2.5 mi NE 20.7 mph 33.4 mph 0.01 in Snow Light Snow
1:17 PM 30.0 °F 18.3 °F 26.1 °F 85% 30.02 in 2.5 mi NE 17.3 mph 33.4 mph 0.01 in Snow Light Snow
1:28 PM 30.0 °F 17.9 °F 26.1 °F 85% 30.02 in 2.5 mi NE 18.4 mph 36.8 mph 0.02 in Rain Light Freezing Rain
1:35 PM 28.9 °F 15.1 °F 25.0 °F 85% 30.02 in 5.0 mi NE 23.0 mph 36.8 mph 0.02 in Rain Light Freezing Rain
1:54 PM 28.9 °F 16.9 °F 26.1 °F 89% 30.03 in 6.0 mi NE 17.3 mph 26.5 mph 0.02 in Rain Light Freezing Rain
2:03 PM 28.9 °F 17.3 °F 26.1 °F 89% 30.04 in 5.0 mi NNE 16.1 mph 25.3 mph 0.00 in Rain Light Freezing Rain
2:38 PM 28.9 °F 19.8 °F 26.1 °F 89% 30.05 in 2.5 mi NE 10.4 mph 19.6 mph 0.00 in Rain Light Freezing Rain
2:54 PM 28.9 °F 19.2 °F 26.1 °F 89% 30.06 in 2.5 mi ENE 11.5 mph 21.9 mph 0.01 in Rain Light Freezing Rain
3:07 PM 28.0 °F 17.5 °F 25.0 °F 88% 30.06 in 3.0 mi ENE 12.7 mph 20.7 mph 0.00 in   Overcast
3:40 PM 28.0 °F 17.5 °F 24.1 °F 85% 30.08 in 6.0 mi NE 12.7 mph 21.9 mph 0.00 in Rain Light Freezing Rain
3:54 PM 28.0 °F 18.6 °F 24.1 °F 85% 30.09 in 8.0 mi NE 10.4 mph 18.4 mph 0.00 in Rain Light Freezing Rain
4:02 PM 27.0 °F 15.6 °F 23.0 °F 85% 30.10 in 4.0 mi NE 13.8 mph 23.0 mph 0.00 in Snow Light Snow
4:10 PM 27.0 °F 15.6 °F 24.1 °F 89% 30.09 in 1.8 mi NE 13.8 mph 20.7 mph 0.00 in Snow Light Snow
4:32 PM 27.0 °F 15.2 °F 23.0 °F 85% 30.11 in 2.0 mi NE 15.0 mph 23.0 mph 0.00 in Snow Light Snow
4:41 PM 26.1 °F 16.8 °F 23.0 °F 88% 30.11 in 3.0 mi NE 9.2 mph 21.9 mph 0.00 in Snow Light Snow
4:45 PM 26.1 °F 14.5 °F 23.0 °F 88% 30.11 in 1.8 mi ENE 13.8 mph 20.7 mph 0.01 in Snow Light Snow
4:54 PM 26.1 °F 15.0 °F 21.9 °F 84% 30.13 in 0.5 mi NE 12.7 mph - 0.01 in Fog , Snow Snow
5:00 PM 25.0 °F 14.2 °F 21.9 °F 88% 30.13 in 0.2 mi NE 11.5 mph - 0.00 in Fog , Snow Snow
5:13 PM 25.0 °F 12.6 °F 21.9 °F 88% 30.13 in 0.2 mi NE 15.0 mph 25.3 mph 0.01 in Fog , Snow Heavy Snow
5:54 PM 25.0 °F 16.3 °F 21.9 °F 88% 30.15 in 0.8 mi ENE 8.1 mph - 0.03 in Snow Light Snow
6:02 PM 25.0 °F 14.2 °F 21.9 °F 88% 30.14 in 1.5 mi ENE 11.5 mph - 0.00 in Snow Light Snow
6:08 PM 25.0 °F 17.1 °F 21.0 °F 85% 30.15 in 3.0 mi ENE 6.9 mph - 0.00 in Snow Light Snow
6:54 PM 25.0 °F 12.6 °F 21.9 °F 88% 30.20 in 6.0 mi NE 15.0 mph 20.7 mph 0.00 in Snow Light Snow
7:33 PM 25.0 °F 13.1 °F 21.0 °F 85% 30.20 in 10.0 mi NNE 13.8 mph - 0.00 in   Overcast
7:54 PM 24.1 °F 13.7 °F 19.9 °F 84% 30.22 in 9.0 mi NE 10.4 mph 18.4 mph 0.00 in   Scattered Clouds
8:54 PM 24.1 °F 14.4 °F 19.9 °F 84% 30.26 in 10.0 mi NNE 9.2 mph - N/A   Mostly Cloudy
9:54 PM 23.0 °F 14.7 °F 19.0 °F 85% 30.29 in 10.0 mi NE 6.9 mph - N/A   Clear
10:54 PM 21.9 °F 12.5 °F 18.0 °F 85% 30.27 in 10.0 mi NNE 8.1 mph - N/A   Clear
11:54 PM 21.0 °F 12.4 °F 17.1 °F 85% 30.29 in 10.0 mi NE 6.9 mph - N/A   Clear